Weather in Zavyalovo

Russia / Novosibirsk Oblast     54°30′21″N   82°26′44″E
temp.,
°C
wind,
m/s
gust,
m/s
humid.,
%
clouds,
%
prec.,
mm/h
press.,
hPa
HPBL,
m
27 february, sat
sat2701:00−24sw61192100 0.1 1036591
04:00−24sw51092100 0.0 1037537
07:00−24sw5995100 0.1 1037473
10:00−24sw5992100 0.1 1038507
13:00−22sw5790100 0.1 1038597
16:00−20wsw4689100 0.1 1038646
19:00−24sw3495100 0.1 103856
22:00−28ssw449433 0.0 103945
28 february, sun
sun2801:00−29ssw349317 0.0 103933
04:00−29s349429 0.0 103836
07:00−28s349452 0.0 103852
10:00−26sse479255 0.0 1037135
13:00−19sse589072 0.0 1034341
16:00−15s51085100 0.0 1030574
19:00−13sse5991100 0.1 1027352
22:00−11sse61289100 0.1 1023389
1 march, mon
mon101:00−8sse61292100 0.3 1019599
04:00−8sse61293100 1.1 1015591
07:00−6s71394100 2.7 1011607
10:00−3ssw91693100 1.8 1009789
13:000sw101698100 3.6 1007785
16:000sw101698100 2.4 1007814
19:000wsw81394100 3.2 1008706
22:00−2w4997100 0.5 1010377
2 march, tue
tue201:00−9n3496100 1.8 1012144
04:00−12nnw229696 0.3 101521
07:00−14nnw129796 0.4 101720
10:00−14wsw119691 0.1 101864
13:00−11wsw248996 0.1 1019393
16:00−9wnw1289100 0.1 1017305
19:00−12ne2396100 0.2 101634
22:00−13ene2396100 0.1 101528
3 march, wed
wed301:00−12ene2295100 0.1 101421
04:00−12nne3496100 0.4 1012122
07:00−12n2396100 1.0 101389
10:00−12nnw2295100 0.4 1014118
13:00−11nw229098 0.6 1015281
16:00−10n2292100 0.3 1016216
19:00−11w2495100 0.8 1018182
22:00−13wsw369599 0.3 1021158